SITRO-AIS-27

operational
NORAD ID: 59068 Int'l Des: 2024-039 Owner: SITRO Country: RU
LEORETROGRADE

SITRO-AIS-27について

説明を読み込み中...

リアルタイム位置

3D地球を読み込み中...

次回通過

高度履歴

Altitude vs Time

uPlot chart will show altitude changes over time

軌道要素

1 59068U 24039T 26061.60046999 .00004980 00000-0 39454-3 0 9993
2 59068 95.3945 162.0242 0145641 340.5661 19.0044 14.92764885108830
Epoch: Mar 2, 2026 • Age: 28 hours

現在のステータス

高度 688.5 km
速度 7.47 km/s
衛星直下点 45.67°N, 128.78°E
打ち上げ日 Feb 29, 2024
運用期間 2 years
タイプ other

技術仕様

分類 Payload
質量 3.00 kg
乾燥質量 3.00 kg
総質量 3.00 kg
長さ 0.30 m
直径 0.10 m
スパン 0.30 m
形状 Box
製造者 SPUT
バスタイプ Cubesat 3U
フェーズステータス In Orbit
所有者/国 SITRO/RU

大規模コンステレーション

Loading constellations...